Flag for Netherlands Weather past 2 weeks in Dordrecht, Netherlands

Now
55 °F

Fog.


Feels Like: 55 °F
Forecast: 59 / 75 °F
Wind: 2 mph from Northeast

Location: Rotterdam Zestienhoven Airport

Current Time: Sep 16, 2014 at 5:17:49 AM

Latest Report: Sep 16, 2014 at 4:55 AM


Visibility: 0 mi

Pressure: 29.98 "Hg

Humidity: 100%

Dew point: 55 °F

Location of DordrechtLocation

Historic Weather in Dordrecht — Graph

°F

Dordrecht temperature yesterday

Maximum temperature yesterday: 73 °F (at 3:25 PM)
Minimum temperature yesterday: 48 °F (at 5:25 AM)
Average temperature yesterday: 61 °F

Past Weeks' High & Low Weather Summary

 TemperatureHumidityPressure
High73 °F (Sep 5, 2:55 PM)100% (Sep 1, 3:25 AM)30.30 "Hg (Sep 1, 3:25 AM)
Low46 °F (Sep 11, 3:25 AM)52% (Sep 10, 3:25 PM)29.89 "Hg (Sep 6, 4:25 AM)
Average61 °F82%30.10 "Hg
* Reported Sep 1 3:25 AM — Sep 16 3:55 AM, Dordrecht, Weather by CustomWeather, © 2014

Note: Actual official high and low records may vary slightly from our data, if they occured in-between our weather recording intervals... More about our weather records

Advertising

Dordrecht weather history for previous 24 hours

 ConditionsComfort  
Time TempWeatherWind HumidityBarometerVisibility
3:55 AM
Sep 16
54 °FFog.2 mph100%29.98 "Hg0 mi
2:55 AM55 °FFog.2 mph100%30.01 "Hg1 mi
2:25 AM54 °FFog.2 mph100%30.01 "Hg1 mi
1:55 AM57 °FFog.3 mph100%30.01 "Hg1 mi
1:25 AM57 °FFog.2 mph100%29.98 "Hg1 mi
12:55 AM57 °FFog.2 mph100%30.01 "Hg1 mi
12:25 AM57 °FFog.1 mph100%30.01 "Hg1 mi
11:55 PM
Sep 15
59 °FFog.3 mph100%30.01 "Hg2 mi
11:25 PM61 °FFog.3 mph94%30.01 "Hg3 mi
10:55 PM61 °FFog.3 mph100%30.01 "Hg3 mi
10:25 PM61 °FPassing clouds.6 mph94%30.01 "Hg4 mi
9:55 PM63 °FPassing clouds.3 mph88%30.01 "Hg5 mi
9:25 PM61 °FCool.6 mph94%30.01 "Hg5 mi
8:55 PM63 °FClear.7 mph88%29.98 "HgN/A
8:25 PM64 °FClear.7 mph83%29.98 "HgN/A
7:55 PM66 °FClear.6 mph78%29.98 "HgN/A
7:25 PM68 °FClear.6 mph69%29.98 "HgN/A
6:55 PM68 °FScattered clouds.6 mph73%29.98 "HgN/A
6:25 PM68 °FClear.8 mph69%29.98 "HgN/A
5:55 PM68 °FClear.8 mph64%29.98 "HgN/A
5:25 PM72 °FPassing clouds.10 mph61%29.98 "HgN/A
4:55 PM73 °FClear.8 mph53%29.98 "HgN/A
4:25 PM72 °FClear.7 mph61%29.98 "HgN/A
3:55 PM72 °FPassing clouds.7 mph61%30.01 "HgN/A
3:25 PM73 °FPartly sunny.8 mph57%30.01 "HgN/A
2:55 PM72 °FMild.9 mph65%30.01 "HgN/A
2:25 PM72 °FPassing clouds.6 mph65%30.01 "HgN/A
1:55 PM72 °FPassing clouds.7 mph65%30.01 "HgN/A
1:25 PM72 °FClear.8 mph69%30.04 "HgN/A
12:55 PM68 °FClear.8 mph73%30.04 "HgN/A
12:25 PM68 °FClear.8 mph73%30.04 "HgN/A
11:55 AM66 °FMild.6 mph78%30.04 "Hg6 mi
11:25 AM64 °FClear.6 mph83%30.04 "Hg5 mi
10:55 AM64 °FMild.6 mph83%30.04 "Hg4 mi
10:25 AM63 °FSunny.5 mph88%30.04 "Hg4 mi
9:55 AM61 °FCool.3 mph94%30.04 "Hg4 mi
9:25 AM59 °FFog.5 mph94%30.04 "Hg3 mi
8:55 AM55 °FFog.2 mph100%30.04 "Hg2 mi
8:25 AM52 °FFog.2 mph100%30.04 "Hg2 mi
7:55 AM50 °FFog.2 mph100%30.04 "Hg2 mi
7:25 AM48 °FFog.2 mph100%30.04 "Hg1 mi
6:55 AM48 °FFog.1 mph100%30.04 "Hg1 mi
6:25 AM50 °FFog.2 mph94%30.04 "Hg0 mi
5:55 AM48 °FFog.2 mph100%30.04 "Hg0 mi
5:25 AM48 °FFog.2 mph100%30.04 "Hg0 mi
Weather by CustomWeather, © 2014

See weather overviewHow to use our weather pages